Theta_e
350 348 346 342 338 334 329 329 327 324 322 323 324 325 328 330 334 335 336 339 340 340 338 338 335 334 333 334 338 338 337 339 341 342 341 339 338 339 340 339 338 338 338 338 337 335 335 336 335 335 335 334 333 332 333 334 334 333 333 333 333 331 330 332 331 330 330 330 331 333 335 336 335 334 334 335 336 336 336 336 337 337 338 338 338
349 348 346 342 339 334 329 330 327 324 322 323 325 327 329 330 332 333 334 334 335 335 335 335 335 335 336 335 336 335 337 341 342 342 339 337 338 339 339 339 338 337 338 337 334 332 333 334 334 335 334 334 332 331 333 334 334 333 333 332 332 330 328 331 332 330 330 329 330 332 333 335 335 334 334 334 334 335 336 336 337 337 337 337 338
348 348 345 342 340 333 329 330 327 323 322 324 326 329 332 332 332 333 334 333 333 334 335 336 337 337 337 335 335 336 338 341 341 339 337 335 337 338 339 340 339 339 340 338 335 332 332 334 335 335 335 334 333 333 334 334 333 333 334 334 334 332 328 326 330 331 330 331 330 331 332 333 333 334 334 334 334 335 335 336 336 337 337 337 337
348 348 345 343 340 334 330 329 327 323 322 325 329 331 332 331 331 335 336 336 336 336 338 338 338 339 338 337 337 338 338 340 340 338 337 336 335 337 340 340 340 340 340 338 336 334 334 336 336 335 335 335 334 334 334 334 334 334 335 335 334 334 330 325 327 330 330 330 330 331 331 331 332 333 334 335 335 334 335 335 335 336 337 337 336
347 346 345 344 339 333 330 329 326 322 323 327 331 331 330 329 331 337 338 337 339 338 338 338 338 338 338 338 339 339 339 340 339 340 340 339 335 336 339 340 339 339 338 337 336 335 337 338 337 337 337 337 336 336 335 335 335 334 335 335 335 334 333 328 325 326 327 327 328 329 328 328 330 332 334 334 334 334 334 333 334 334 335 336 336
347 346 345 342 339 334 331 330 326 322 324 330 332 330 328 330 335 338 338 338 338 337 338 337 338 338 338 339 339 340 341 341 341 341 340 339 338 336 336 338 338 337 337 336 336 337 338 338 338 338 338 337 336 337 337 337 336 336 335 335 336 335 333 330 325 324 326 327 327 327 327 326 327 330 332 332 333 334 334 333 333 333 332 333 334
346 345 344 342 339 334 332 330 326 321 325 332 331 329 327 330 336 337 337 337 336 336 337 338 338 338 338 339 339 339 341 341 340 340 339 339 340 337 335 336 336 337 336 335 337 338 338 337 338 338 337 336 336 337 337 336 336 335 335 334 335 335 334 331 326 324 326 328 328 329 329 329 329 330 330 331 333 333 333 333 333 333 332 331 331
346 345 343 342 339 335 333 330 325 321 326 333 330 329 327 331 336 337 337 337 336 337 336 337 339 338 338 338 338 338 338 338 337 337 338 339 339 339 337 337 337 336 335 336 338 338 338 338 338 338 337 336 336 336 335 333 333 333 333 334 333 334 334 332 328 325 326 327 328 330 330 329 330 329 329 330 332 332 332 333 333 333 332 330 329
346 345 343 342 339 337 334 330 325 322 327 332 331 329 327 331 335 337 338 337 337 336 336 338 339 338 338 339 338 338 338 337 336 336 338 339 339 339 339 338 337 337 336 336 338 338 338 338 338 338 337 336 335 333 332 332 332 333 333 334 334 333 334 332 328 325 326 328 329 329 328 327 327 327 328 329 329 330 330 331 331 331 331 330 329
346 345 344 342 339 338 333 330 326 322 328 333 332 330 329 330 331 335 336 336 336 335 337 338 338 338 338 338 337 338 338 338 338 338 339 339 339 339 338 337 336 335 335 337 338 338 338 338 338 337 335 333 332 332 332 332 333 334 333 334 334 334 333 331 328 325 325 327 327 327 327 327 327 328 328 328 328 328 329 329 330 331 331 330 330
345 345 343 342 340 336 331 330 327 323 328 333 334 332 331 330 330 333 334 334 335 335 337 338 337 338 337 337 337 338 339 339 339 339 340 340 339 338 337 335 335 334 333 336 338 338 337 337 335 333 332 331 331 332 332 333 334 333 333 333 332 332 331 328 327 325 325 326 327 328 328 328 328 328 328 328 327 327 329 330 330 331 331 330 329
345 344 343 343 340 334 331 331 328 325 329 334 335 334 333 331 330 332 332 334 335 335 335 336 337 337 337 337 338 339 338 338 338 339 339 339 338 337 336 336 336 333 332 334 336 335 334 332 332 331 331 331 331 331 332 334 334 334 332 332 331 330 329 326 325 324 325 327 328 328 328 328 329 329 329 328 328 328 329 329 329 329 329 329 329
344 343 343 343 339 334 332 331 327 325 330 336 336 335 336 335 333 333 334 335 335 336 334 335 336 337 338 338 339 339 338 337 337 338 338 338 338 337 336 336 335 333 331 332 332 332 330 330 330 330 330 330 330 331 332 334 335 334 332 332 331 330 327 325 323 322 324 326 328 328 328 328 328 328 328 328 328 328 328 328 328 328 327 328 328
344 342 343 342 338 335 333 330 326 326 332 337 337 336 338 338 338 336 335 334 335 335 334 335 335 336 337 337 337 337 337 336 337 337 337 337 337 337 337 336 335 334 332 330 330 330 329 330 330 329 330 329 330 331 332 334 335 334 333 331 331 330 327 326 324 323 323 324 326 328 328 328 328 329 329 328 328 327 327 327 327 327 326 326 326
343 342 343 341 338 337 335 330 326 330 335 337 338 338 339 338 338 335 334 335 335 334 334 334 333 334 334 334 334 333 334 334 335 336 337 337 337 336 337 336 333 333 332 330 328 328 329 329 329 329 329 329 330 330 332 334 334 334 333 331 331 330 328 327 326 324 323 322 323 325 327 328 328 329 328 328 327 327 327 326 326 326 325 325 325
343 343 343 341 339 339 338 336 332 334 336 338 339 339 340 338 336 334 334 336 334 333 333 333 333 333 333 333 332 332 333 333 334 334 336 336 336 336 335 333 332 333 333 331 328 327 328 328 329 329 329 329 329 330 331 333 334 334 333 332 332 331 329 328 327 325 323 322 323 324 326 328 328 328 328 328 328 327 327 326 326 325 325 325 325
343 343 342 341 340 340 340 340 337 337 338 339 339 340 339 337 336 335 336 335 332 332 334 334 334 334 335 335 334 333 333 333 333 333 333 333 334 335 334 334 334 334 333 333 331 329 328 329 329 329 329 329 329 329 331 333 334 334 333 333 332 332 330 329 329 326 325 324 323 322 323 326 328 328 329 328 327 327 326 326 326 325 325 325 325
343 343 342 341 341 341 340 339 337 338 340 339 340 340 339 338 337 337 335 333 331 333 335 336 335 336 336 336 335 334 333 333 333 333 333 332 333 334 336 336 337 336 334 334 334 331 329 328 329 329 329 328 329 329 331 332 333 334 334 333 332 332 330 329 329 326 325 324 323 321 321 325 326 327 328 327 327 327 327 326 326 324 324 325 325
343 343 343 342 341 340 339 339 338 339 340 339 341 340 340 339 338 337 334 331 332 334 336 336 336 337 337 336 334 333 334 334 333 333 333 332 333 334 336 336 337 337 335 335 335 332 329 328 327 327 328 328 329 329 330 332 333 334 334 333 332 332 330 329 329 327 326 325 324 322 322 323 325 327 326 326 327 326 325 326 325 323 324 326 325
343 343 343 342 340 339 339 340 339 340 339 339 341 341 341 340 338 336 333 332 334 335 336 336 337 337 338 337 334 333 334 334 334 334 333 332 331 332 332 333 334 334 332 333 332 329 327 326 326 326 327 328 329 329 329 331 332 333 334 334 333 332 331 330 329 327 326 325 325 323 323 322 322 327 328 327 327 324 324 325 323 321 325 326 324
343 343 343 342 340 338 340 341 340 340 339 339 340 341 341 340 338 336 333 334 336 336 336 337 337 338 338 337 335 334 333 334 334 334 333 332 331 330 330 331 330 326 325 324 324 322 323 324 325 326 327 328 329 329 329 330 331 332 334 334 333 333 332 330 329 327 326 325 325 325 325 323 322 326 327 326 326 325 324 325 323 322 324 324 324
343 342 342 341 340 340 341 341 341 341 339 340 340 341 341 340 338 335 334 335 336 337 337 337 338 338 338 337 335 334 334 333 333 333 334 334 332 330 328 329 325 323 322 321 321 320 321 323 325 327 328 328 329 329 329 330 330 331 333 334 333 333 332 330 329 328 327 326 327 327 327 327 325 326 327 326 325 325 325 325 324 323 323 322 322
342 342 342 341 341 342 342 341 341 340 339 340 341 341 340 339 337 334 335 336 338 338 338 338 338 338 338 337 335 334 334 333 333 334 335 334 334 329 325 325 324 324 323 322 323 322 323 325 327 328 328 328 329 329 329 330 330 331 333 334 334 333 332 330 329 328 327 327 328 328 329 328 327 327 327 325 325 326 326 325 322 323 323 322 322
342 342 342 341 342 343 341 341 341 339 339 340 340 341 340 339 335 334 336 338 338 338 338 338 337 337 337 336 334 334 334 334 334 336 335 335 334 330 324 324 325 325 324 323 324 325 325 327 328 329 329 329 329 329 329 330 330 329 331 334 334 334 332 331 329 328 327 327 328 329 329 329 329 329 326 324 324 326 325 323 322 323 323 322 322
341 342 343 342 342 342 341 341 340 339 339 340 340 341 340 337 334 335 338 338 338 339 339 338 337 337 336 334 333 333 334 335 336 335 335 334 334 331 326 324 324 325 326 325 326 326 327 329 330 330 330 330 330 330 329 329 330 329 329 333 334 334 333 332 329 328 328 328 329 330 329 330 331 330 329 326 325 326 324 321 323 324 321 321 322
342 344 344 342 342 341 340 340 340 339 339 340 340 341 339 335 335 337 338 337 338 338 338 338 337 336 334 333 332 332 334 336 336 334 333 333 333 332 329 325 324 325 326 327 327 328 328 329 330 331 331 331 330 330 329 329 329 328 328 330 333 334 333 332 330 328 328 328 330 330 328 330 331 331 331 330 328 326 322 320 323 323 320 321 322
342 344 343 342 341 341 340 340 340 339 339 340 340 340 337 334 336 338 336 337 337 338 338 337 335 334 333 333 332 332 335 336 335 333 332 332 332 332 330 329 327 327 328 328 328 328 329 330 331 331 331 330 330 329 329 328 329 328 328 329 331 333 333 332 330 329 328 328 329 329 327 329 332 331 331 330 329 326 321 319 320 320 320 321 322
342 343 343 342 341 341 340 339 339 340 340 340 339 339 337 334 337 337 336 336 337 337 337 336 334 333 333 332 331 332 335 335 334 333 333 332 331 331 331 331 330 330 330 330 329 330 331 331 331 331 331 330 329 328 328 328 328 328 328 329 331 332 333 332 330 329 329 328 329 329 327 329 332 331 331 330 329 325 319 315 315 319 322 322 321
342 343 343 342 341 340 340 339 339 339 339 339 338 338 336 335 336 336 336 336 336 336 336 335 334 333 333 332 331 332 333 334 334 334 333 332 332 332 332 332 332 331 331 332 332 332 332 331 331 331 331 330 330 328 327 327 328 328 328 329 331 332 333 332 331 329 329 328 329 329 327 330 332 331 331 330 329 327 319 311 311 317 319 317 317
342 342 342 342 341 340 339 338 338 338 338 338 338 338 335 334 335 335 335 335 335 336 335 335 334 333 332 332 333 332 333 333 333 333 333 332 332 332 332 332 333 332 332 332 332 332 332 332 331 331 330 330 330 328 327 327 327 328 328 328 330 332 332 332 331 329 329 328 329 330 328 330 332 331 331 330 330 329 323 317 315 316 316 316 316
341 342 340 340 340 339 339 337 337 338 338 339 338 337 334 333 334 335 335 334 334 334 335 334 333 332 332 333 333 333 333 333 333 333 332 332 332 332 332 332 332 332 333 333 332 332 331 331 331 331 330 330 329 328 328 327 328 328 328 328 329 331 332 331 330 329 329 329 330 330 329 330 332 331 330 330 329 329 327 326 323 319 320 322 322
341 341 340 339 338 339 338 336 337 338 338 338 337 335 333 332 334 335 334 334 334 333 334 335 333 333 333 332 333 333 333 333 333 333 332 331 331 331 332 332 332 332 332 332 333 332 331 331 331 330 330 329 329 328 328 328 328 328 327 328 329 331 332 331 329 329 329 329 330 330 329 329 331 331 330 330 329 328 328 329 327 324 324 325 325
340 339 339 338 338 338 338 337 336 337 338 337 336 333 331 331 333 334 334 335 334 333 334 335 334 333 333 332 332 333 333 333 333 333 332 332 332 332 332 331 332 332 332 332 332 332 331 331 331 330 329 329 329 329 328 328 328 328 327 327 329 331 331 330 329 328 329 329 329 329 329 329 330 331 330 330 329 328 328 329 328 327 326 327 327
339 338 338 337 337 337 337 338 337 337 338 337 335 332 330 332 333 334 335 335 333 333 334 334 334 333 333 332 332 333 332 333 333 332 333 333 332 331 332 332 332 332 331 331 331 331 331 331 330 330 330 329 329 329 328 328 327 327 327 327 329 331 331 330 329 329 329 329 329 329 329 329 330 330 330 330 330 329 328 328 328 328 327 327 328
338 337 337 336 336 337 337 337 337 337 337 336 334 331 330 332 334 335 335 335 334 334 335 334 334 333 333 332 333 332 332 332 332 332 332 332 332 332 331 331 331 331 331 331 331 331 331 331 331 330 329 329 329 329 328 327 327 326 326 327 329 330 331 330 329 329 329 328 329 330 330 329 330 330 329 329 329 329 329 327 326 327 327 327 326
337 336 336 336 336 337 336 337 336 336 336 335 333 331 331 333 335 336 335 334 334 334 335 334 334 334 334 333 333 332 332 332 332 331 332 332 332 332 331 331 331 331 330 331 331 331 331 330 330 330 329 329 329 328 327 327 327 326 326 326 328 329 330 330 329 328 327 328 329 330 330 330 330 330 329 329 328 329 329 327 326 326 326 326 325
336 336 336 336 336 337 336 335 335 335 335 333 332 332 333 335 335 335 335 334 334 334 334 334 334 334 334 333 332 332 332 332 332 332 332 333 332 331 331 331 331 331 331 331 330 331 331 330 330 330 329 329 328 328 327 327 326 326 326 326 327 328 328 329 329 328 327 327 329 330 331 331 331 330 330 330 329 329 329 328 327 326 326 326 326
337 336 336 336 337 337 336 335 334 334 334 333 333 334 335 335 335 335 335 335 335 334 334 334 334 333 333 333 332 332 332 332 331 332 333 333 332 332 332 331 332 331 331 330 330 330 330 330 330 330 330 328 328 327 327 327 327 326 327 327 327 327 328 328 329 330 328 326 327 328 330 331 330 330 330 330 328 328 329 329 328 327 326 326 326
337 336 337 337 337 336 335 335 334 334 334 334 335 335 335 335 335 335 335 335 334 333 333 333 333 333 333 333 332 332 332 332 331 332 333 332 332 332 332 332 331 331 330 330 330 330 330 330 330 329 329 328 328 328 327 327 327 327 327 328 329 329 329 329 329 329 327 326 325 326 329 331 330 330 330 329 329 328 328 328 328 328 327 326 326
337 337 337 337 337 335 335 335 334 334 335 335 336 335 335 335 335 335 336 335 333 333 333 333 333 333 333 333 332 332 332 332 332 333 332 332 332 332 332 332 331 331 330 329 330 330 330 330 330 329 329 328 328 328 327 328 327 327 328 329 330 330 330 330 329 329 327 327 327 325 327 329 329 329 329 329 329 328 328 327 327 327 326 326 326
337 337 337 337 337 335 335 335 334 335 336 335 336 335 335 335 335 335 335 334 333 333 334 334 334 333 333 332 332 332 332 332 332 332 332 332 332 332 332 331 331 331 330 329 331 331 330 330 329 329 329 328 328 328 328 327 327 327 327 328 328 329 330 329 329 329 329 329 329 327 327 328 327 328 328 328 328 328 328 328 327 326 326 326 326
336 337 337 337 336 335 336 336 335 335 335 336 336 335 335 334 334 334 334 334 334 335 334 334 333 333 333 332 332 332 332 331 331 331 332 332 332 332 332 331 331 331 330 330 331 331 330 330 329 328 329 328 328 328 328 328 327 327 326 327 327 327 328 328 328 328 328 328 329 328 328 328 327 328 328 328 328 328 328 328 328 327 327 327 326
336 336 337 337 336 336 335 335 335 335 335 336 336 335 335 334 333 333 333 335 335 335 334 332 331 331 332 332 332 331 330 330 331 331 332 332 332 332 331 331 331 330 330 330 331 331 330 330 329 328 328 328 328 328 328 328 327 326 327 327 327 327 328 327 327 327 327 327 328 328 327 327 327 328 327 328 328 328 328 327 328 327 327 327 328
335 335 336 336 336 335 335 335 335 335 335 336 336 335 335 334 333 332 334 336 335 334 331 330 329 329 330 330 330 331 330 330 331 331 332 331 331 331 330 330 330 330 329 330 331 331 330 330 330 329 328 328 328 328 328 328 328 327 326 325 324 325 328 328 326 326 327 327 328 328 327 327 327 327 327 327 327 328 327 327 327 327 327 327 328
334 335 335 336 336 335 335 335 335 335 336 336 336 335 335 335 333 333 335 335 334 333 330 329 329 329 329 329 330 330 330 329 330 330 330 330 330 330 330 330 330 330 330 330 330 330 330 331 330 329 328 328 328 328 329 329 328 327 326 325 325 326 327 326 326 326 326 326 327 328 327 327 327 328 327 327 326 326 327 326 327 327 326 327 327
334 334 335 335 336 336 335 335 334 335 335 335 335 334 334 334 333 334 335 334 334 333 330 328 328 328 328 328 329 328 327 327 328 328 329 329 329 329 329 329 330 330 330 330 330 330 330 331 331 330 328 328 328 328 329 329 329 327 326 326 328 327 325 326 327 326 326 326 326 327 327 326 326 327 327 326 325 325 325 325 325 326 326 326 325
333 333 334 335 336 336 334 334 334 334 335 334 334 334 334 333 333 335 335 333 334 333 329 327 327 327 327 327 327 326 325 325 326 326 327 328 328 329 329 330 330 330 330 330 330 330 330 330 330 330 328 328 328 328 329 329 329 328 327 327 327 326 325 325 326 326 327 327 327 326 326 325 325 326 326 325 324 323 323 324 324 324 325 325 324
332 332 333 334 335 335 334 334 334 334 334 334 334 334 333 333 334 335 335 333 333 332 330 329 328 327 327 327 327 326 324 324 325 325 326 327 328 329 329 330 330 330 330 330 330 329 329 330 330 329 329 328 329 328 329 329 328 328 328 327 328 327 325 325 325 326 327 328 327 325 325 325 325 324 324 323 322 323 323 324 324 324 324 324 324
331 332 332 333 334 334 333 333 333 333 334 334 335 334 333 334 335 335 334 334 333 333 331 329 328 327 327 327 327 327 324 323 324 324 325 326 327 328 329 328 328 328 329 329 329 329 328 328 329 329 329 328 329 329 329 329 328 328 328 327 326 325 325 325 325 326 326 327 327 326 325 325 325 324 323 323 323 323 323 323 324 324 324 323 323
330 330 332 332 333 334 333 332 332 334 334 334 335 334 334 335 334 335 334 333 332 332 331 328 327 326 325 326 327 326 325 324 324 324 325 326 326 327 327 326 325 326 328 327 327 328 328 327 328 328 328 328 329 329 328 329 328 328 328 327 325 324 324 324 325 326 325 326 326 325 325 325 324 322 322 324 323 323 323 323 323 322 322 321 321
330 330 331 331 332 333 333 332 332 333 334 334 334 334 334 334 334 334 333 332 331 330 328 327 325 324 324 325 325 325 325 325 324 324 325 325 325 325 325 324 324 325 326 326 326 327 327 327 327 327 327 327 328 328 328 329 328 328 328 326 325 325 325 325 325 325 325 325 325 324 324 324 322 320 321 322 321 320 321 320 319 318 318 317 316
Wind_Speed
24 23 22 23 25 25 24 23 21 21 22 23 23 24 25 26 28 28 30 30 30 31 32 31 31 29 27 26 24 24 26 26 25 24 23 22 23 22 21 21 20 20 20 19 18 19 20 21 22 23 23 22 22 23 24 22 21 21 21 20 20 19 19 18 17 17 17 18 17 16 16 16 17 17 17 17 17 17 17 18 19 20 20 20 20
27 25 23 24 26 25 24 23 21 21 22 23 23 23 24 25 26 27 28 29 30 30 29 28 27 26 25 25 25 27 27 26 25 24 23 22 22 22 21 21 20 20 20 20 19 19 21 23 23 22 22 22 22 23 23 22 21 20 20 20 19 19 19 17 17 17 17 18 17 16 16 16 17 18 17 16 17 17 16 18 18 20 20 20 20
28 25 23 25 26 26 25 23 22 22 22 23 23 23 23 24 25 25 25 26 26 25 25 25 25 25 25 26 26 27 27 26 25 24 23 22 22 21 21 21 20 20 20 20 20 20 22 23 21 21 21 21 22 21 21 22 20 20 19 19 18 18 18 18 17 17 17 18 18 17 16 16 16 16 16 16 16 16 15 16 17 18 19 19 19
28 26 24 25 26 26 25 23 22 22 23 23 23 23 22 23 23 23 23 24 23 24 24 24 24 25 25 26 26 25 25 25 25 24 24 22 23 21 20 19 19 19 19 19 20 21 22 22 21 21 21 21 21 20 20 21 19 18 18 17 18 17 16 17 17 17 18 18 18 17 16 17 15 14 15 16 15 15 15 15 16 16 17 17 17
28 26 25 25 26 26 25 24 23 22 23 24 23 22 22 22 22 23 23 24 23 23 24 24 23 24 24 24 24 23 22 22 23 23 23 21 22 21 19 19 19 19 19 19 20 21 22 20 20 20 19 19 19 19 18 18 17 16 14 13 14 15 14 15 17 18 19 19 17 17 16 15 14 13 14 15 15 15 14 13 14 14 15 15 16
28 27 26 25 26 25 25 24 23 23 24 23 23 21 21 21 22 23 23 24 24 24 24 24 23 23 23 22 21 21 21 22 22 21 21 20 20 20 19 19 19 19 19 20 20 21 21 19 19 19 18 18 18 17 16 15 15 14 12 10 11 13 12 12 15 18 19 19 18 17 14 13 15 14 12 13 14 13 13 13 12 12 13 14 14
28 27 26 26 27 25 25 24 23 24 24 23 23 21 21 22 23 23 24 24 24 24 23 23 23 23 23 22 21 21 21 21 21 20 20 19 18 19 19 19 19 19 19 20 20 20 19 19 19 18 18 18 17 16 15 14 13 11 10 10 10 10 10 10 13 17 18 19 18 16 15 15 15 13 12 11 12 12 13 13 12 11 11 11 12
27 27 26 28 27 26 25 24 23 24 24 24 23 21 21 22 22 23 24 24 23 23 22 22 21 21 22 22 22 21 20 20 19 19 19 18 18 17 18 18 19 18 18 19 20 20 19 18 18 17 17 17 16 15 14 12 11 9 8 9 10 9 7 9 12 15 17 18 17 15 15 14 14 14 12 11 11 11 12 12 11 11 10 10 11
26 25 26 28 27 26 24 23 22 23 25 24 24 22 22 22 23 23 23 23 22 22 22 21 20 20 20 21 21 21 21 19 18 18 18 18 18 18 19 18 18 18 19 19 19 19 18 18 17 17 16 16 15 14 13 11 9 8 9 10 11 10 8 9 11 13 16 17 16 15 14 14 14 14 12 10 11 11 11 10 10 11 10 10 11
25 25 26 28 27 25 24 24 22 23 25 25 24 23 22 23 23 22 22 22 21 21 21 20 20 19 20 21 21 21 20 20 20 19 19 18 19 19 19 17 16 17 18 19 19 19 18 18 17 16 16 15 14 13 11 10 9 10 11 12 13 12 10 10 11 13 15 16 15 16 16 15 15 14 12 12 12 12 11 10 10 11 11 11 11
25 25 26 27 27 26 25 24 22 23 25 25 24 23 23 22 22 22 21 20 19 19 20 20 19 19 20 20 20 20 19 19 20 19 19 19 19 18 16 14 14 15 17 19 19 18 18 18 17 16 16 15 13 12 11 9 10 11 12 14 15 13 12 11 11 14 16 16 16 17 16 15 15 14 13 14 14 14 13 11 11 11 11 11 10
24 25 26 26 25 25 25 23 23 23 25 25 23 23 22 22 21 20 20 18 17 17 18 19 18 18 19 19 19 19 18 18 18 18 18 18 18 15 13 13 13 15 17 18 18 18 18 18 18 16 15 14 13 13 11 10 10 11 13 14 14 14 13 12 13 14 15 17 16 16 16 15 15 14 13 14 14 13 12 11 11 10 10 10 10
24 25 26 26 24 25 25 24 23 23 25 23 22 23 22 21 20 19 19 18 17 16 17 17 17 18 18 18 18 18 17 17 16 17 17 17 16 14 14 14 14 15 17 18 18 18 19 19 18 16 14 13 13 14 12 11 11 12 13 14 14 13 13 13 14 15 15 16 16 15 15 15 15 13 13 13 13 12 12 11 11 10 9 9 10
26 26 28 27 26 25 24 24 23 23 24 22 21 22 21 21 19 19 18 18 17 16 16 16 17 17 17 17 16 16 15 15 15 16 16 15 15 14 15 15 14 15 16 17 17 18 18 18 16 15 14 13 14 14 14 12 11 12 13 13 12 12 13 14 15 15 15 15 16 16 15 14 13 12 12 12 12 12 11 11 11 10 10 10 10
26 28 28 28 27 25 23 24 23 24 24 22 21 21 21 20 19 18 18 17 16 16 16 16 16 16 16 15 15 15 15 15 15 15 15 15 15 14 14 14 14 14 14 15 16 17 17 16 15 14 13 13 14 14 14 13 11 11 12 12 12 12 12 13 15 15 15 14 14 15 15 15 13 12 12 11 11 11 11 11 11 11 11 12 11
26 27 27 27 27 24 23 23 23 24 23 22 21 21 21 20 19 18 17 17 16 16 16 15 16 16 16 16 15 16 16 16 16 16 15 14 14 13 12 12 14 14 13 13 14 15 15 15 14 13 13 12 13 14 14 14 12 11 11 11 11 11 11 12 14 14 14 14 13 13 15 15 13 12 12 11 11 11 11 11 11 11 11 12 11
25 26 26 26 26 25 24 23 23 23 23 22 21 21 20 20 19 17 17 17 17 17 17 16 16 16 16 16 16 16 16 16 15 15 15 14 14 13 12 12 14 14 12 12 12 13 14 13 12 11 12 12 13 13 14 14 12 10 10 11 11 10 10 10 12 13 13 13 13 12 13 14 13 12 12 11 10 10 10 11 11 11 11 11 10
24 24 26 26 26 25 24 23 22 22 23 22 20 21 20 20 18 17 17 17 18 17 17 17 16 16 16 16 16 16 16 16 15 15 14 14 14 13 12 13 13 13 11 10 10 11 11 11 10 10 10 11 12 12 14 14 13 11 10 11 11 10 9 9 11 12 12 12 13 12 13 13 13 13 12 11 11 10 10 10 9 10 11 11 10
22 23 24 24 25 25 24 23 23 23 23 22 20 21 20 19 18 17 17 18 18 18 17 17 16 16 17 16 16 16 16 16 16 15 14 14 13 12 12 12 12 12 10 9 9 9 9 9 9 9 9 10 10 11 13 14 13 12 11 11 11 10 9 8 10 11 11 11 11 12 12 12 12 12 11 12 11 11 11 10 9 10 12 10 9
21 21 22 23 24 25 24 23 23 23 23 22 21 20 19 18 17 17 17 17 18 17 17 16 16 16 16 16 16 16 16 16 16 15 15 13 13 12 11 11 10 10 9 8 7 7 7 8 9 9 9 9 9 10 12 13 12 12 12 12 12 10 9 7 8 10 10 11 11 11 11 11 11 11 11 11 11 11 11 10 9 11 12 10 9
20 20 21 22 24 24 24 23 23 23 22 21 20 19 19 18 17 17 16 16 17 17 17 16 16 15 15 15 15 16 16 16 15 15 15 14 13 12 11 11 9 9 8 8 8 7 8 9 9 9 9 9 8 9 11 12 12 11 11 13 13 11 9 8 7 9 9 10 10 10 10 10 11 11 10 10 10 10 11 10 9 10 11 10 10
21 20 20 22 23 23 23 24 24 23 22 21 21 19 19 19 18 17 16 16 16 16 16 16 16 15 14 14 14 15 15 15 14 14 14 14 13 11 11 11 11 10 10 9 9 9 9 9 9 10 9 8 7 8 10 11 11 10 10 12 13 12 10 8 7 8 8 9 10 10 9 8 9 10 9 9 9 9 9 9 9 10 10 10 11
22 21 20 21 21 22 23 24 24 24 23 22 21 20 19 19 19 18 17 16 16 16 17 17 16 15 14 14 13 13 13 13 12 13 13 13 13 11 12 12 12 12 11 10 10 10 10 10 10 10 9 8 7 7 8 9 10 10 10 11 13 12 10 8 7 7 7 8 9 9 8 7 8 9 8 7 8 9 8 7 8 10 10 10 11
23 22 21 21 21 22 23 24 24 24 24 23 22 20 20 20 20 19 18 17 17 17 16 16 16 15 14 14 13 13 13 12 12 12 12 12 12 11 12 12 12 11 11 11 11 11 11 11 10 9 8 7 7 7 7 8 9 10 10 11 12 12 11 9 7 7 7 7 8 8 7 7 8 8 7 6 7 7 7 6 7 8 9 10 10
24 23 22 22 22 23 24 25 24 25 25 24 23 21 20 20 19 19 18 17 17 17 16 15 15 14 14 14 13 13 13 13 12 11 11 12 12 11 11 11 10 10 10 11 11 11 11 10 9 8 8 7 7 7 7 7 8 9 9 10 11 12 11 9 7 7 7 7 8 8 7 8 8 6 6 6 7 6 5 6 7 7 7 9 9
24 22 22 23 23 24 25 26 25 26 25 24 23 20 20 20 19 19 18 17 17 17 16 15 15 14 14 13 13 13 12 12 11 10 10 10 11 10 10 9 8 8 9 9 10 10 9 8 7 7 7 6 6 7 7 7 8 8 8 9 9 11 11 9 8 8 7 7 9 7 7 9 8 5 5 5 5 5 4 5 7 6 7 8 8
24 22 22 25 25 25 26 27 27 26 25 24 22 20 21 21 19 18 17 17 17 17 16 15 14 14 13 12 12 12 12 12 10 9 8 9 9 10 9 8 7 8 8 8 8 8 6 6 6 6 6 6 6 6 6 6 7 8 8 8 8 9 10 10 9 8 7 8 9 7 8 10 9 5 4 4 4 4 4 5 6 6 7 8 7
23 22 23 25 26 26 27 27 27 26 25 24 21 21 22 21 19 17 17 16 16 16 16 15 14 13 12 11 11 11 11 11 9 8 8 8 8 8 8 8 7 7 7 6 6 5 5 5 5 5 5 5 5 5 5 6 6 7 7 7 7 8 10 10 10 9 8 8 9 8 8 10 10 5 4 4 4 5 4 4 5 7 8 7 6
21 21 23 25 27 27 27 27 26 25 24 23 22 21 22 21 19 18 16 15 15 14 14 14 13 12 11 10 10 10 10 9 8 8 7 7 7 7 7 7 6 6 5 5 4 4 4 4 4 4 4 5 5 5 5 5 5 6 6 6 6 8 9 10 11 10 10 10 9 8 8 10 10 5 3 4 4 6 5 5 6 7 7 7 7
19 21 24 25 26 27 26 26 25 25 23 23 22 21 22 21 19 18 16 14 14 13 13 13 12 12 11 10 9 8 7 6 6 7 6 5 5 5 6 6 6 5 4 3 3 3 2 3 3 4 4 4 4 4 4 4 5 5 5 5 6 7 8 10 11 11 11 11 10 8 9 11 10 6 5 4 4 5 6 7 7 7 8 8 8
19 22 25 25 26 27 26 26 25 24 23 22 21 21 22 21 19 18 15 13 13 12 12 12 11 11 11 10 8 7 6 5 5 5 4 4 3 3 3 5 5 5 3 3 3 3 2 2 2 3 4 4 4 4 4 4 4 5 5 5 5 7 9 11 12 12 12 11 11 9 10 11 9 7 7 5 3 4 4 6 7 8 8 8 8
21 24 26 26 27 27 27 26 25 23 23 22 20 21 21 19 18 16 14 12 13 12 12 12 11 11 11 10 8 6 5 4 4 4 4 4 3 2 1 3 4 3 3 4 5 4 4 2 2 3 4 4 4 5 5 4 4 5 6 5 6 8 10 13 14 13 13 12 11 10 10 11 10 8 7 6 2 3 4 5 5 6 6 6 6
24 26 26 28 27 27 26 26 25 23 23 22 21 21 20 18 16 15 13 12 13 12 11 11 10 10 10 9 7 5 4 5 5 5 5 4 3 1 1 2 3 3 4 5 6 5 4 4 4 4 4 4 4 5 5 5 5 6 7 7 7 8 10 13 14 13 13 11 10 10 10 12 12 9 7 6 3 2 5 4 2 3 4 4 4
25 27 27 29 27 24 25 25 25 24 23 22 22 21 19 17 15 14 13 12 12 11 11 10 9 9 8 8 6 4 4 5 5 5 5 4 4 2 2 4 4 5 6 6 6 5 5 5 5 6 6 5 5 5 5 5 5 6 7 7 7 8 10 12 13 12 11 10 10 10 10 12 12 10 7 6 5 2 5 4 1 2 1 1 1
27 28 29 29 26 24 24 25 25 24 23 22 21 20 17 16 15 14 13 12 12 10 9 9 8 7 7 7 6 4 3 5 5 5 4 5 5 4 4 5 5 6 7 7 6 6 6 6 6 6 6 6 6 6 6 5 6 7 7 7 7 8 10 11 11 11 10 10 11 10 10 11 11 10 7 5 4 4 5 4 3 2 1 2 3
29 28 27 26 24 23 24 24 25 24 22 21 20 18 16 15 15 14 13 12 11 9 8 7 6 7 7 6 5 5 5 6 5 5 6 6 6 5 5 6 7 7 7 7 7 6 6 7 6 5 5 7 7 6 6 6 6 7 7 6 7 8 9 10 10 10 10 11 11 10 10 10 9 8 7 6 3 3 4 5 5 2 1 4 6
28 26 25 25 23 22 23 24 24 23 22 21 19 17 15 15 15 14 12 11 9 8 7 6 6 6 6 6 6 7 7 7 7 7 7 8 7 6 7 7 7 7 7 7 7 6 6 6 7 6 4 6 7 7 7 6 7 7 6 6 6 7 8 9 10 10 11 11 11 10 9 8 7 6 5 5 3 2 4 5 4 2 1 3 4
25 25 24 23 23 22 22 22 22 22 22 21 19 17 16 15 15 13 11 10 8 7 6 6 6 6 6 7 8 9 9 8 8 9 9 8 8 7 8 8 8 7 7 7 7 7 6 6 8 7 5 5 7 8 9 9 9 10 10 9 7 6 6 8 9 9 10 10 10 10 8 6 6 5 3 3 2 3 3 4 3 2 1 2 3
23 23 23 22 22 21 21 20 21 22 21 19 18 17 17 16 14 13 11 10 9 8 7 7 7 7 7 8 9 9 9 9 9 10 10 9 9 9 9 9 8 7 7 7 8 8 7 7 8 8 7 6 7 8 11 11 12 13 14 13 10 9 6 6 7 7 9 10 8 9 8 7 5 3 2 2 3 3 3 3 3 3 2 2 2
23 23 24 23 21 20 21 20 20 21 20 19 19 19 18 17 15 13 12 10 10 9 8 8 8 7 8 9 9 9 9 9 10 10 10 9 9 10 11 10 8 7 6 7 9 8 8 8 7 8 8 8 8 9 10 12 16 17 16 15 12 10 7 6 6 6 7 7 5 7 7 6 5 4 3 3 3 4 4 3 2 3 3 3 2
23 24 24 24 21 20 22 22 21 21 20 20 20 20 19 18 16 14 12 11 11 10 10 10 9 8 9 9 9 10 10 10 10 10 10 9 9 10 11 10 9 7 6 7 8 8 7 8 8 8 8 10 11 10 11 14 18 18 16 15 13 11 7 5 6 7 6 4 1 4 6 5 4 4 4 4 4 4 4 3 2 2 2 2 2
24 25 24 23 20 19 22 24 22 21 21 21 21 20 19 18 16 15 14 13 11 10 11 11 11 11 10 10 10 10 10 9 10 10 9 9 8 9 9 9 9 8 8 8 8 8 8 8 9 9 9 12 12 13 14 13 12 13 13 12 11 10 8 6 8 9 7 5 5 5 4 5 6 5 6 6 5 4 3 3 3 1 1 2 2
24 24 21 21 20 18 21 23 22 23 22 22 21 19 18 16 15 15 15 13 11 11 13 14 13 12 12 11 11 10 9 10 10 9 8 7 7 8 9 9 9 9 9 9 9 9 9 8 7 9 11 13 13 16 15 8 10 14 11 6 3 5 6 6 8 10 8 7 7 8 8 6 5 4 5 6 5 6 4 3 2 1 2 3 3
21 22 19 20 21 19 20 22 23 24 23 21 20 18 17 15 14 14 14 13 13 13 15 16 14 12 12 11 10 10 10 10 9 8 7 7 7 8 9 9 9 9 9 10 10 10 10 9 8 9 13 14 14 17 14 8 13 14 7 3 1 2 2 3 6 9 9 9 8 8 9 9 7 6 5 5 6 6 4 2 1 1 2 3 2
19 21 19 20 22 22 21 21 22 24 23 21 20 18 18 17 15 14 14 14 15 15 16 16 13 13 12 11 11 11 10 10 9 9 8 8 7 7 8 9 9 9 9 9 9 9 10 9 9 10 13 15 15 17 14 8 12 11 4 4 3 1 1 4 5 6 9 9 9 9 9 10 10 10 10 9 8 6 3 3 2 1 1 1 1
19 21 20 20 23 23 21 20 21 23 23 21 19 19 20 19 18 18 18 17 16 16 16 16 14 13 13 12 12 11 10 10 9 9 9 8 8 7 7 8 8 9 9 8 8 9 10 9 9 10 12 14 14 17 14 10 12 9 3 4 1 1 7 7 4 3 8 10 10 10 10 12 12 12 12 9 7 6 5 5 5 6 6 7 6
18 20 20 20 23 23 20 20 21 21 22 22 21 20 21 20 20 21 21 20 19 17 16 16 15 14 14 14 13 12 10 9 9 9 8 8 8 8 8 8 8 8 7 8 8 9 9 9 8 9 11 13 13 15 15 12 13 9 5 4 2 4 13 10 5 4 5 6 10 11 11 11 11 12 11 8 7 8 9 9 9 10 10 10 10
17 20 20 20 23 23 19 19 20 21 22 23 22 21 21 21 21 20 19 19 18 18 17 16 15 14 14 14 13 11 10 9 9 9 8 7 7 8 9 8 8 7 7 8 9 9 9 9 9 9 10 11 11 13 13 13 14 10 5 5 3 8 13 10 10 10 6 4 7 9 11 13 13 12 9 9 9 10 10 11 11 10 10 10 10
17 20 21 20 21 22 19 17 19 20 21 23 22 20 20 20 20 19 18 17 17 18 18 17 15 14 14 14 14 12 10 9 8 9 8 6 7 8 9 8 8 7 7 8 8 9 9 9 9 9 10 10 10 10 11 13 14 11 7 6 8 12 12 9 13 15 9 5 4 5 8 12 14 12 10 10 10 9 9 9 9 9 9 10 10
15 18 21 19 20 21 20 17 18 20 20 21 21 20 20 20 19 18 17 18 18 19 19 18 16 15 15 15 14 12 10 9 8 9 8 7 7 8 8 7 6 6 7 7 7 7 8 7 7 8 9 9 9 9 9 11 13 10 8 9 13 16 12 9 12 14 10 7 6 7 8 9 9 10 9 9 7 7 7 7 8 9 9 10 11
13 17 19 19 19 21 22 18 17 19 20 20 20 19 19 19 18 18 19 20 21 21 21 19 18 17 16 15 14 12 11 9 8 8 8 8 8 8 7 6 4 4 6 5 5 5 5 6 7 8 9 9 9 9 9 11 11 9 8 10 15 16 11 9 14 16 12 9 8 8 8 10 10 9 8 7 7 7 7 8 9 9 10 11 12
Wind_Direction
157 156 160 161 158 155 152 148 145 142 138 135 134 135 135 136 135 134 134 132 130 132 134 134 135 134 133 131 127 125 125 122 120 118 118 117 116 115 116 116 116 116 115 113 111 110 109 108 106 106 106 105 106 105 100 95 93 91 89 87 81 78 82 84 84 91 96 99 99 90 81 83 91 95 92 89 88 86 84 82 83 84 83 82 83
156 155 160 161 158 155 152 148 146 142 138 136 135 136 135 135 136 135 134 133 132 131 131 131 131 129 128 126 125 125 123 120 121 120 119 117 115 115 117 118 117 116 115 112 111 111 112 111 108 108 106 106 107 104 99 97 94 93 91 87 80 75 81 87 86 92 98 101 102 96 85 77 83 92 91 88 88 85 83 81 81 82 82 81 81
150 152 158 160 158 154 152 150 147 143 139 137 135 136 134 133 133 133 133 133 132 128 126 126 125 123 123 123 124 124 123 122 123 120 117 114 116 117 116 116 115 114 113 112 112 112 112 111 109 109 108 108 108 104 101 99 93 92 92 87 79 71 73 86 91 94 100 104 106 105 93 83 80 84 90 91 88 86 83 82 81 80 80 81 81
147 150 155 158 158 154 152 150 148 143 141 137 135 135 134 135 133 129 129 130 128 127 125 123 123 122 120 121 121 121 121 121 121 119 114 112 115 116 114 115 114 114 114 115 114 114 113 112 111 110 109 108 106 103 103 104 99 94 94 86 81 75 70 80 92 97 103 109 111 110 100 95 87 76 88 95 91 88 85 83 82 81 81 81 81
146 150 154 156 157 154 151 151 147 143 142 137 135 136 137 136 132 127 127 128 128 130 128 126 125 124 122 120 120 120 119 119 120 117 114 112 113 114 115 116 115 116 117 116 116 116 115 113 113 111 108 108 106 104 103 105 105 103 101 89 81 82 76 75 91 103 106 110 111 109 101 99 97 84 83 91 91 87 85 84 82 82 80 79 78
146 150 154 156 155 153 151 151 148 145 142 137 135 138 139 134 130 128 130 130 129 128 126 125 125 125 124 123 124 124 123 125 123 117 114 113 113 115 117 117 116 117 118 117 118 117 117 115 114 112 110 111 109 105 102 102 104 105 105 97 83 83 84 78 90 105 108 109 109 107 101 96 101 98 83 81 87 86 84 83 82 81 78 77 76
147 151 156 157 154 151 151 151 148 146 143 138 137 139 140 133 130 131 132 131 128 124 122 122 122 125 126 125 127 126 126 124 121 116 114 115 116 115 116 118 118 119 119 119 119 118 117 116 115 113 112 112 108 104 103 101 101 103 104 102 95 90 89 85 94 106 109 110 108 105 103 103 103 101 90 86 88 85 82 84 86 83 78 77 76
147 152 156 157 154 151 151 152 149 147 144 139 139 140 138 132 130 133 133 131 129 126 124 123 123 126 127 127 128 128 127 123 117 113 115 118 118 117 116 118 117 118 121 121 120 119 118 117 115 113 112 110 106 104 102 99 98 99 99 98 104 110 99 93 100 106 111 112 109 105 104 106 103 99 96 94 91 89 89 86 87 84 79 76 74
147 151 155 156 152 151 152 152 150 148 145 140 140 140 137 133 133 134 134 132 131 128 126 124 125 129 130 130 130 130 130 127 122 117 118 119 120 119 119 119 118 118 121 124 122 121 119 117 115 113 112 110 107 105 100 97 96 91 88 92 106 121 114 102 103 107 116 116 111 108 102 99 99 98 93 91 93 97 100 90 85 84 80 76 75
147 152 155 155 151 152 154 153 151 149 145 142 141 141 138 136 137 137 136 134 132 129 127 126 128 131 133 132 131 130 130 129 126 123 123 124 126 126 125 122 119 120 124 125 122 122 121 119 119 116 115 113 109 105 101 97 93 87 87 93 104 115 113 106 105 107 117 118 112 106 99 97 98 97 88 88 93 96 99 92 86 86 82 80 80
149 153 155 153 152 155 156 154 152 148 145 143 142 142 141 139 139 138 137 136 133 132 129 128 130 133 135 133 132 133 134 132 129 128 127 130 133 132 128 121 116 119 126 127 124 125 125 123 121 118 116 112 109 103 99 94 89 88 92 97 101 106 105 103 105 106 112 113 109 105 100 96 93 91 87 88 93 96 97 94 91 87 84 84 84
150 153 153 152 153 157 156 154 151 147 146 145 145 144 143 142 142 141 139 137 135 136 134 132 133 137 138 135 135 137 141 139 134 132 129 131 134 135 126 117 116 116 122 127 125 126 126 123 120 118 115 111 107 101 96 90 89 94 100 101 101 103 99 95 100 105 109 109 108 109 105 100 94 90 90 90 92 96 97 93 90 87 88 88 87
150 152 152 153 156 159 157 154 151 149 148 146 146 145 143 143 143 143 142 140 139 140 138 136 138 141 140 138 139 140 142 141 139 135 133 132 130 132 127 121 118 115 118 123 124 125 125 123 121 120 117 113 107 101 97 92 92 102 108 108 104 101 97 93 96 103 108 110 110 108 103 100 98 94 93 93 91 92 93 92 88 87 88 88 92
151 153 154 157 159 159 157 155 152 150 149 147 146 144 143 143 143 147 146 144 144 143 139 139 142 142 141 141 141 141 139 138 136 135 136 134 128 128 127 124 121 117 120 125 127 127 127 125 123 123 120 116 110 102 98 96 96 108 116 115 110 101 97 94 97 101 105 110 112 113 109 102 97 94 95 94 91 89 87 88 87 84 83 85 94
152 154 156 159 157 157 157 155 153 151 151 148 146 144 144 144 145 148 146 143 143 142 139 139 141 139 139 138 137 133 130 130 130 131 132 133 134 132 125 122 122 120 121 126 131 131 129 127 126 125 122 117 112 105 101 101 100 111 122 122 117 105 96 95 97 100 102 108 114 116 114 107 103 100 98 96 92 88 84 86 87 87 84 84 89
153 155 157 157 155 155 155 154 153 152 152 148 147 147 145 145 145 147 144 141 140 140 138 137 137 136 135 133 129 125 123 124 127 130 131 133 138 139 133 127 123 119 118 123 130 133 133 130 128 125 122 116 112 108 104 105 105 112 124 128 124 112 99 95 97 99 101 107 113 115 115 112 113 109 104 100 97 93 89 88 87 88 87 87 89
155 157 157 156 155 155 155 154 153 151 151 149 149 150 147 146 146 146 144 141 140 139 138 138 138 137 134 128 124 122 122 123 126 129 129 130 136 140 140 136 128 121 119 119 122 130 135 134 132 127 123 116 112 111 108 109 110 114 125 133 133 121 109 99 97 99 100 103 110 117 118 118 119 115 110 109 105 100 96 93 90 92 92 89 88
156 159 158 157 156 154 154 154 154 153 152 150 150 151 150 148 147 145 144 143 142 140 141 141 139 137 132 127 123 121 122 122 125 126 126 128 132 134 132 131 127 121 122 123 123 128 133 136 137 133 128 120 115 114 113 112 112 115 124 136 140 130 121 110 101 101 101 101 107 115 119 122 123 122 122 118 111 105 102 98 94 98 97 90 86
154 158 157 157 157 154 154 154 157 156 154 153 152 152 152 151 148 146 146 145 143 143 144 143 140 138 132 126 121 120 120 120 123 122 123 125 128 128 123 124 122 123 129 134 134 131 132 136 139 137 132 127 118 115 117 116 114 114 121 136 144 140 134 122 109 105 105 103 106 112 117 123 125 125 127 124 120 117 113 107 101 101 98 91 90
153 157 158 159 158 155 156 157 160 158 157 156 153 153 153 151 149 148 148 145 145 146 146 145 142 138 133 126 121 121 121 120 119 118 119 120 121 122 121 120 122 130 140 147 145 139 139 138 138 138 137 134 125 117 117 118 116 115 120 132 144 147 144 134 117 112 110 108 109 112 116 120 124 127 127 126 126 124 119 114 107 104 99 93 92
153 158 160 161 160 158 158 160 160 159 158 156 156 156 153 151 150 150 149 147 146 146 147 146 143 139 137 131 125 123 123 121 119 117 118 116 114 115 118 119 122 132 140 148 151 148 143 138 135 137 140 140 133 119 116 120 119 117 122 132 144 152 152 144 128 119 116 114 115 113 112 111 116 129 132 132 130 125 121 116 109 103 100 100 97
156 159 162 163 161 159 161 160 160 161 158 158 159 156 155 152 151 152 149 148 147 147 149 147 147 145 143 136 127 124 125 123 121 121 120 118 115 113 117 118 120 124 129 132 135 138 135 129 125 131 137 139 137 121 114 121 124 121 125 136 146 153 156 154 140 127 121 120 118 113 117 112 111 126 133 134 129 121 118 114 113 108 103 103 101
158 160 163 165 161 161 163 160 161 163 160 160 161 158 158 155 155 155 150 150 151 153 153 152 153 149 144 139 131 128 126 122 123 125 122 120 117 115 117 118 121 122 123 120 118 121 121 118 113 117 125 131 134 119 110 119 127 126 124 135 147 155 160 161 150 135 127 125 121 118 124 123 118 126 129 132 129 119 115 114 114 111 107 106 101
161 161 164 167 164 164 165 162 164 166 164 164 165 162 161 160 158 155 153 153 154 156 156 156 156 149 144 142 137 132 130 127 127 127 125 125 121 121 123 125 125 119 117 117 114 115 114 111 106 107 111 115 121 112 108 115 125 130 127 132 144 156 164 166 160 145 136 131 126 126 131 127 123 123 111 111 123 118 115 115 109 106 109 109 104
160 159 163 167 168 169 167 165 168 169 168 169 168 165 164 163 160 156 156 156 156 157 157 157 153 149 147 144 141 138 136 134 132 132 131 130 127 127 129 131 129 117 115 117 114 112 110 106 104 106 103 102 107 103 106 115 124 133 136 137 143 156 164 168 168 157 148 140 134 135 135 130 125 120 96 86 105 116 115 112 109 107 109 107 102
156 156 162 170 172 173 171 168 170 172 171 172 169 164 165 164 161 160 159 158 158 157 156 156 152 150 148 146 146 144 140 136 134 136 134 132 131 132 133 134 131 121 120 121 118 116 110 108 108 109 101 97 100 99 103 113 126 135 141 145 147 154 160 170 175 168 156 146 142 141 139 135 129 123 104 86 90 110 121 117 117 115 107 101 97
159 157 164 174 175 173 175 172 172 174 172 174 169 161 166 166 163 162 161 159 158 157 156 155 152 150 149 149 150 147 143 138 135 137 136 135 135 137 139 137 132 125 123 124 125 124 119 113 113 111 100 95 93 93 98 107 121 132 138 145 151 154 159 172 180 175 164 154 148 143 143 138 136 126 97 84 74 88 120 120 124 116 98 94 95
162 162 165 174 179 176 177 176 174 174 173 174 170 165 169 167 163 165 163 161 160 157 156 155 153 151 150 152 153 149 144 140 139 142 142 140 139 139 139 139 137 130 126 126 129 130 126 117 114 112 103 98 94 89 92 101 112 122 129 136 151 159 165 175 182 180 172 163 154 147 145 139 143 141 78 86 72 62 96 116 117 112 103 101 100
162 165 167 173 181 182 179 180 177 175 175 175 172 170 171 168 165 167 164 162 163 158 156 157 155 152 152 154 154 150 145 142 143 144 142 140 140 139 140 143 141 136 132 131 132 126 121 117 113 112 106 101 100 92 89 100 108 115 122 127 142 158 169 177 182 184 177 168 160 150 144 140 151 156 83 105 89 57 64 89 97 101 102 102 95
166 167 174 177 182 185 183 183 179 177 177 176 176 173 171 172 169 169 166 163 164 160 160 161 157 157 156 153 153 149 145 147 147 143 140 140 143 148 153 154 150 143 141 145 152 143 123 116 108 108 109 105 110 107 94 101 111 117 126 128 137 153 167 176 183 187 180 171 165 156 147 145 157 154 106 112 107 71 70 81 82 86 88 83 81
173 169 179 184 185 188 187 187 184 180 181 179 179 175 174 176 170 170 172 167 167 167 166 165 161 162 161 156 155 153 151 152 154 150 149 152 159 170 166 161 159 155 161 175 183 188 173 136 108 108 114 115 124 127 114 115 126 125 129 135 146 157 169 178 185 187 182 172 168 166 153 151 163 152 133 135 110 74 93 100 84 83 84 79 81
178 177 184 188 189 190 189 191 188 183 185 183 178 176 177 176 172 175 177 171 173 174 171 170 168 166 167 164 159 160 166 168 168 170 172 174 178 198 191 157 160 171 189 197 197 198 190 177 147 128 125 125 133 135 126 133 142 130 128 143 163 170 175 182 186 186 182 175 173 173 160 157 165 160 159 169 132 59 106 120 94 93 90 85 91
181 185 190 192 193 191 189 193 190 186 188 183 177 177 178 176 175 179 178 177 178 178 175 174 172 172 174 172 168 168 175 181 180 180 181 185 192 213 237 178 174 188 193 190 189 188 178 170 159 150 143 135 136 134 128 137 148 135 135 153 172 177 179 182 186 186 182 178 178 176 167 165 168 172 176 176 178 75 96 114 100 106 100 95 103
186 189 194 196 195 191 191 193 191 190 189 183 179 179 178 176 178 181 181 182 181 180 177 175 176 177 182 183 184 183 177 181 181 185 189 197 207 210 213 193 186 188 181 177 178 173 164 159 155 156 150 140 139 135 132 142 146 142 146 159 169 174 178 180 182 186 185 184 186 180 170 168 174 182 176 166 189 157 115 115 85 86 44 8 68
190 192 197 198 195 192 192 192 193 193 188 184 181 179 180 179 181 183 183 184 182 181 178 176 180 182 188 189 192 202 197 191 186 193 203 208 209 207 202 191 185 180 174 169 168 167 163 159 155 157 153 144 143 140 143 156 152 148 152 159 162 165 172 177 183 191 192 191 191 185 172 169 175 182 176 167 187 178 147 116 81 89 1 21 53
191 192 197 196 193 193 192 191 193 191 186 184 182 180 182 182 184 183 182 184 184 184 181 180 184 183 184 187 194 202 202 202 198 200 203 201 200 199 192 182 175 169 165 161 162 169 168 162 156 159 161 148 148 155 157 161 155 150 153 156 158 160 165 171 181 187 190 193 191 189 182 177 175 172 173 177 191 205 169 122 96 108 54 56 67
192 192 193 193 191 191 191 190 190 189 186 186 184 182 184 185 185 180 178 180 180 182 180 181 184 180 181 185 191 195 195 199 199 196 194 195 195 189 182 174 167 160 161 162 163 168 169 167 157 155 166 156 158 163 153 144 135 131 134 137 142 148 157 167 176 180 184 189 188 191 191 183 180 169 165 175 190 218 176 143 134 142 50 34 55
194 193 192 191 190 189 189 188 188 187 187 186 183 181 183 184 183 176 170 169 170 174 173 177 178 175 178 181 185 187 189 189 188 189 186 192 192 182 177 171 166 162 168 172 166 164 165 170 161 152 155 159 163 158 139 124 110 101 98 99 106 119 142 164 171 174 179 185 189 195 192 178 177 173 170 168 162 194 181 161 175 187 211 356 25
195 195 193 192 191 188 186 186 188 189 188 186 180 178 181 181 178 170 165 165 166 169 170 170 167 168 169 172 177 177 178 175 174 179 183 189 186 180 178 170 166 167 174 177 169 166 161 165 169 158 145 149 160 149 135 122 103 93 92 91 91 99 119 151 154 154 167 180 191 194 190 180 175 171 180 170 151 175 185 180 203 224 239 274 323
195 195 193 193 191 187 184 183 187 189 186 181 175 174 175 174 172 166 164 165 165 165 162 157 153 156 159 162 166 162 162 163 164 172 181 185 185 186 182 169 165 167 174 180 172 166 158 160 173 165 149 148 151 143 142 129 106 94 94 96 98 101 108 123 119 120 147 173 197 194 186 180 180 185 186 176 167 176 185 189 210 236 255 264 274
194 196 195 192 190 187 186 184 185 188 185 179 173 173 172 169 168 165 164 165 165 163 154 149 149 150 152 155 155 151 154 157 161 169 175 179 183 191 186 170 165 166 172 179 173 169 163 162 168 166 160 156 149 143 145 132 111 99 94 92 94 98 106 114 95 83 96 105 113 185 183 183 183 181 173 173 184 189 193 196 206 245 284 304 281
192 196 195 190 187 188 190 189 187 186 187 183 178 177 177 173 169 166 165 165 165 160 149 145 149 149 149 150 149 149 152 153 157 161 165 172 176 181 182 172 166 166 172 178 179 179 178 178 169 164 168 163 158 154 147 133 117 114 109 96 88 89 91 91 80 68 66 68 69 90 130 178 186 177 173 177 186 188 186 178 180 232 301 334 320
193 197 195 188 185 187 192 194 190 186 187 188 185 183 181 177 172 167 164 163 163 157 148 144 146 145 145 145 146 148 148 148 150 153 158 167 172 173 174 174 171 171 178 181 183 183 185 190 176 169 171 164 162 163 157 144 136 132 120 107 94 85 79 67 68 67 67 71 77 84 86 116 144 151 173 178 178 179 176 167 169 247 300 329 331
192 195 192 187 185 189 196 195 190 187 187 188 187 185 179 175 172 169 165 162 159 153 146 143 142 141 140 139 142 143 143 144 146 150 158 161 168 174 175 176 177 178 184 188 187 186 190 190 179 181 180 168 162 169 170 158 152 146 122 100 105 97 97 75 70 66 70 72 74 87 89 96 103 101 117 121 126 145 150 140 132 330 323 332 327
190 193 191 187 188 194 199 197 190 187 187 186 185 181 175 170 167 165 164 160 155 153 148 146 145 143 140 137 139 140 140 141 142 150 160 160 162 171 178 179 180 181 187 194 196 194 194 192 184 186 189 182 173 177 183 173 164 162 135 126 108 62 167 125 103 69 68 76 74 82 87 93 104 104 99 92 94 106 112 112 103 78 68 63 79
190 192 191 190 193 196 198 198 192 188 187 185 181 180 176 173 170 166 164 158 154 156 154 151 150 148 143 140 139 138 138 138 138 143 152 159 159 161 168 176 179 179 182 193 200 197 195 195 189 188 193 195 188 185 190 188 179 179 167 165 145 169 164 142 123 74 75 83 81 83 89 94 99 98 95 91 83 89 102 108 103 105 103 92 85
188 191 191 192 194 194 193 195 195 189 186 182 181 181 178 176 176 172 168 164 159 160 162 157 153 150 147 146 144 141 142 144 142 140 140 148 155 157 162 169 174 175 178 188 194 195 195 194 191 189 191 197 198 195 197 195 189 198 226 231 268 168 161 151 145 138 105 93 86 84 86 88 94 94 94 95 87 88 95 99 99 103 100 89 85
188 189 189 191 193 192 190 191 192 188 183 181 180 180 180 178 177 173 170 169 166 165 168 167 161 156 154 154 153 152 153 155 155 148 139 138 149 158 162 167 170 172 177 185 190 190 189 188 187 188 188 195 205 207 205 200 192 195 216 230 218 167 162 162 154 139 122 116 101 88 86 89 92 91 89 91 94 94 94 95 97 98 95 90 90
188 188 188 190 192 192 190 184 184 183 180 180 179 179 182 180 176 173 170 172 174 171 172 172 167 162 160 161 165 166 164 163 162 156 146 139 149 156 157 156 159 167 174 180 187 187 185 187 189 189 189 192 202 212 214 205 193 192 196 178 158 152 148 146 143 131 119 128 125 107 105 99 88 79 80 84 85 87 88 90 93 96 95 93 95
181 186 187 190 192 194 194 182 175 178 179 179 179 179 183 182 177 175 174 174 174 170 169 169 166 162 160 163 169 171 167 162 159 156 151 148 151 154 149 142 143 159 170 173 180 184 186 191 196 196 196 196 195 201 214 206 196 200 200 174 155 147 136 130 137 131 120 114 116 124 121 106 87 74 77 80 75 77 83 85 91 95 98 98 100
169 178 184 188 190 193 197 190 175 176 180 180 181 181 181 180 179 179 178 175 170 168 166 164 163 161 159 161 165 166 161 156 153 151 153 158 159 157 149 141 137 154 169 173 177 179 182 190 199 202 203 205 197 192 198 202 201 203 201 186 169 157 148 156 157 148 138 125 122 128 113 101 94 80 79 82 82 86 87 91 98 100 103 105 105